Regional Weather Roundup
Issued by NWS

Home | Current Version | Previous Version | Graphics & Text | Print | Product List | Glossary Off
Versions: 1 2 3 4 5 6 7 8 9 10 11 12 13 14 15 16 17 18 19 20 21 22 23 24 25 26 27 28 29 30 31 32 33 34 35 36 37 38 39 40 41 42 43 44 45 46 47 48 49 50

000
ASUS45 KABQ 011810
RWRNM
NEW MEXICO REGIONAL WEATHER ROUNDUP
NATIONAL WEATHER SERVICE ALBUQUERQUE NM
1200 PM MDT SAT AUG 01 2015

NOTE: "FAIR" MEANS FEW OR NO CLOUDS BELOW 12,000 FEET AGL WITH NO
       SIGNIFICANT WEATHER OR OBSTRUCTIONS TO VISION.

      THIS PRODUCT IS RELEASED AS TWO VERSIONS.  ONE VERSION NEAR
      THE TOP OF THE HOUR CONTAINING PRELIMINARY DATA FROM ALBUQUERQUE
      AND OTHER STATIONS.  A FINAL VERSION WITH ADDITIONAL DATA IS
      ISSUED ABOUT 10 MINUTES AFTER THE HOUR.

NMZ501-503-504-510>518-011900-
NORTHWEST PLATEAU/NORTHCENTRAL MOUNTAINS

CITY           SKY/WX    TMP DP  RH WIND       PRES   REMARKS
FARMINGTON     LGT RAIN  77  56  48 VRB3      30.26F
6HR MIN TEMP:  63; 6HR MAX TEMP:  77; 6HR PCP:  0.01;

LOS ALAMOS     LGT RAIN  71  58  62 N13       30.38F
SANTA FE       MOSUNNY   78  51  38 W8        30.30F
6HR MIN TEMP:  61; 6HR MAX TEMP:  79;

TAOS           MOSUNNY   72  50  46 CALM      30.38F
ANGEL FIRE     FAIR      69  53  58 W9        30.45F

$$
NMZ402-403-502-505>509-011900-
WESTCENTRAL MOUNTAINS/SOUTHWEST MOUNTAINS

CITY           SKY/WX    TMP DP  RH WIND       PRES   REMARKS
GALLUP         SUNNY     78  55  44 SW6       30.31F
6HR MIN TEMP:  60; 6HR MAX TEMP:  78;

GRANTS         MOSUNNY   78  56  47 E8        30.34F
SILVER CITY      N/A     82  50  32 SE10      30.26F

$$
NMZ407-409-411-412-011900-
SOUTHERN DESERTS

CITY           SKY/WX    TMP DP  RH WIND       PRES   REMARKS
LORDSBURG      FAIR      86  55  35 SE10G17   30.15F
DEMING         SUNNY     88  56  33 E7        30.16F
6HR MIN TEMP:  70; 6HR MAX TEMP:  88;

LAS CRUCES     SUNNY     85  58  39 SE5       30.19F
HOLLOMAN AFB   SUNNY     90  54  29 VRB6      30.14F
ALAMOGORDO     SUNNY     90  54  29 S9        30.16F
T OR C         MOSUNNY   81  57  43 CALM      30.20F
6HR MIN TEMP:  66; 6HR MAX TEMP:  81;


$$
NMZ519>523-011900-
CENTRAL VALLEYS/CENTRAL HIGHLANDS

CITY           SKY/WX    TMP DP  RH WIND       PRES   REMARKS
ALBUQUERQUE    MOSUNNY   80  55  42 CALM      30.26F
6HR MIN TEMP:  68; 6HR MAX TEMP:  80;

DOUBLE EAGLE   MOSUNNY   79  57  47 VRB3      30.29F
MORIARTY ARPT    N/A     74  56  52 CALM      30.32F
6HR MIN TEMP:  60; 6HR MAX TEMP:  74;

CLINES CORNERS MOSUNNY   73  54  51 W14       30.36S
6HR MIN TEMP:  59; 6HR MAX TEMP:  73;

BELEN          FAIR      81  55  40 CALM      30.25F
6HR MIN TEMP:  66; 6HR MAX TEMP:  82;

SOCORRO        FAIR      78  58  51 NE3       30.23F
6HR MIN TEMP:  64; 6HR MAX TEMP:  78; 6HR PCP:  0.11;


$$
NMZ524>526-539-540-011900-
SOUTHCENTRAL MOUNTAINS

CITY           SKY/WX    TMP DP  RH WIND       PRES   REMARKS
RUIDOSO          N/A    N/A N/A N/A MISG        N/A

$$
NMZ527>531-011900-
NORTHEAST HIGHLANDS/NORTHEAST PLAINS

CITY           SKY/WX    TMP DP  RH WIND       PRES   REMARKS
LAS VEGAS      SUNNY     76  55  48 VRB5      30.32F
6HR MIN TEMP:  57; 6HR MAX TEMP:  77;

RATON          MOSUNNY   81  59  47 VRB7      30.26F
6HR MIN TEMP:  60; 6HR MAX TEMP:  81;

CLAYTON        SUNNY     82  66  58 S15G21    30.18F
6HR MIN TEMP:  64; 6HR MAX TEMP:  82;


$$
NMZ532>537-011900-
EASTCENTRAL PLAINS

CITY           SKY/WX    TMP DP  RH WIND       PRES   REMARKS
TUCUMCARI      SUNNY     84  63  49 S12G20    30.14F
6HR MIN TEMP:  68; 6HR MAX TEMP:  85; 6HR PCP: TRACE;

CANNON AFB     MOSUNNY   79  67  65 S6        30.20F
6HR MIN TEMP:  67; 6HR MAX TEMP:  79;

CLOVIS AIRPORT PTSUNNY   79  66  65 S9G17     30.21F

$$
NMZ028-029-538-011900-
SOUTHEAST PLAINS

CITY           SKY/WX    TMP DP  RH WIND       PRES   REMARKS
ROSWELL        SUNNY     90  63  40 NW5       30.13F
6HR MIN TEMP:  71; 6HR MAX TEMP:  90;

ARTESIA        SUNNY     88  63  42 SE5       30.14F
CARLSBAD       SUNNY     92  60  34 MISG      30.11F
6HR MIN TEMP:  73; 6HR MAX TEMP:  92;

HOBBS          MOSUNNY   90  57  33 SE9       30.16F


$$


USA.gov is the U.S. government's official web portal to all federal, state and local government web resources and services.